QPF
0.00 0.00 0.00 0.00 0.00 0.00 0.00 0.00 0.00 0.00 0.00 0.00 0.00 0.00 0.00 0.00 0.00 0.00 0.00 0.00 0.00 0.00 0.00 0.00 0.00 0.00 0.00 0.00 0.00 0.00 0.00 0.00 0.00 0.00 0.00 0.00 0.00 0.00 0.00 0.00 0.00 0.01 0.00 0.00 0.00
0.00 0.00 0.00 0.00 0.00 0.00 0.00 0.00 0.00 0.00 0.00 0.00 0.00 0.00 0.00 0.00 0.00 0.00 0.00 0.00 0.00 0.00 0.00 0.00 0.00 0.00 0.00 0.00 0.00 0.00 0.00 0.00 0.00 0.00 0.00 0.00 0.00 0.00 0.00 0.00 0.00 0.00 0.00 0.00 0.00
0.00 0.00 0.00 0.00 0.00 0.00 0.00 0.00 0.00 0.00 0.00 0.00 0.00 0.00 0.00 0.00 0.00 0.00 0.00 0.00 0.00 0.00 0.00 0.00 0.00 0.00 0.00 0.00 0.00 0.00 0.00 0.00 0.00 0.00 0.00 0.00 0.00 0.00 0.00 0.00 0.00 0.00 0.00 0.00 0.00
0.00 0.00 0.00 0.00 0.00 0.00 0.00 0.00 0.00 0.00 0.00 0.00 0.00 0.00 0.00 0.00 0.00 0.00 0.00 0.00 0.00 0.00 0.00 0.00 0.00 0.00 0.00 0.00 0.00 0.00 0.00 0.00 0.00 0.00 0.00 0.00 0.00 0.00 0.00 0.00 0.00 0.00 0.00 0.00 0.00
0.00 0.00 0.00 0.00 0.00 0.00 0.00 0.00 0.00 0.00 0.00 0.00 0.00 0.00 0.00 0.00 0.00 0.00 0.00 0.00 0.00 0.00 0.00 0.00 0.00 0.00 0.00 0.00 0.00 0.00 0.00 0.00 0.00 0.00 0.00 0.00 0.00 0.00 0.00 0.00 0.00 0.00 0.00 0.00 0.00
0.00 0.00 0.00 0.00 0.00 0.00 0.00 0.00 0.00 0.00 0.00 0.00 0.00 0.00 0.00 0.00 0.00 0.00 0.00 0.00 0.00 0.00 0.00 0.00 0.00 0.00 0.00 0.00 0.00 0.00 0.00 0.00 0.00 0.00 0.00 0.00 0.00 0.00 0.00 0.00 0.00 0.00 0.00 0.00 0.00
0.00 0.00 0.00 0.00 0.00 0.00 0.00 0.00 0.00 0.00 0.00 0.00 0.00 0.00 0.00 0.00 0.00 0.00 0.00 0.00 0.00 0.00 0.00 0.00 0.00 0.00 0.00 0.00 0.00 0.00 0.00 0.00 0.00 0.00 0.00 0.00 0.00 0.00 0.00 0.00 0.00 0.00 0.00 0.00 0.00
0.00 0.00 0.00 0.00 0.00 0.00 0.00 0.00 0.00 0.00 0.00 0.00 0.00 0.00 0.00 0.00 0.00 0.00 0.00 0.00 0.00 0.00 0.00 0.00 0.00 0.00 0.00 0.00 0.00 0.00 0.00 0.00 0.00 0.00 0.00 0.00 0.00 0.00 0.00 0.00 0.00 0.00 0.00 0.00 0.03
0.00 0.00 0.00 0.00 0.00 0.00 0.00 0.00 0.00 0.00 0.00 0.00 0.00 0.00 0.00 0.00 0.00 0.00 0.00 0.00 0.00 0.00 0.00 0.00 0.00 0.00 0.00 0.00 0.00 0.00 0.00 0.00 0.00 0.00 0.00 0.00 0.00 0.00 0.00 0.00 0.00 0.00 0.01 0.10 0.25
0.00 0.00 0.00 0.00 0.00 0.00 0.00 0.00 0.00 0.00 0.00 0.00 0.00 0.00 0.00 0.00 0.00 0.00 0.00 0.00 0.00 0.00 0.00 0.00 0.00 0.00 0.00 0.00 0.00 0.00 0.00 0.00 0.00 0.00 0.00 0.00 0.00 0.00 0.00 0.00 0.01 0.05 0.15 0.23 0.30
0.00 0.00 0.00 0.00 0.00 0.00 0.00 0.00 0.00 0.00 0.00 0.00 0.00 0.00 0.00 0.00 0.00 0.00 0.00 0.00 0.00 0.00 0.00 0.00 0.00 0.00 0.00 0.00 0.00 0.00 0.00 0.00 0.00 0.00 0.00 0.00 0.00 0.00 0.00 0.04 0.05 0.05 0.05 0.07 0.13
0.00 0.00 0.00 0.00 0.00 0.00 0.00 0.00 0.00 0.00 0.00 0.00 0.00 0.00 0.00 0.00 0.00 0.00 0.00 0.00 0.00 0.00 0.00 0.00 0.00 0.00 0.00 0.00 0.00 0.00 0.00 0.00 0.00 0.00 0.00 0.00 0.00 0.00 0.00 0.01 0.00 0.00 0.00 0.00 0.00
0.00 0.00 0.00 0.00 0.00 0.00 0.00 0.00 0.00 0.00 0.00 0.00 0.00 0.00 0.00 0.00 0.00 0.00 0.00 0.00 0.00 0.00 0.00 0.00 0.00 0.00 0.00 0.00 0.00 0.00 0.00 0.00 0.00 0.00 0.00 0.00 0.00 0.00 0.03 0.01 0.00 0.00 0.00 0.00 0.00
0.00 0.00 0.00 0.00 0.00 0.00 0.00 0.00 0.00 0.00 0.00 0.00 0.00 0.00 0.00 0.00 0.00 0.00 0.00 0.00 0.00 0.00 0.00 0.00 0.00 0.00 0.00 0.00 0.00 0.00 0.00 0.00 0.00 0.00 0.00 0.00 0.00 0.00 0.01 0.00 0.00 0.00 0.00 0.00 0.00
0.00 0.00 0.00 0.00 0.00 0.00 0.00 0.00 0.00 0.00 0.00 0.00 0.00 0.00 0.00 0.00 0.00 0.00 0.00 0.00 0.00 0.00 0.00 0.00 0.00 0.00 0.00 0.00 0.00 0.00 0.00 0.00 0.00 0.00 0.00 0.00 0.00 0.00 0.02 0.00 0.00 0.00 0.00 0.00 0.00
0.00 0.00 0.00 0.00 0.00 0.00 0.00 0.00 0.00 0.00 0.00 0.00 0.00 0.00 0.00 0.00 0.00 0.00 0.00 0.00 0.00 0.00 0.00 0.00 0.00 0.00 0.00 0.00 0.00 0.00 0.00 0.00 0.00 0.00 0.00 0.00 0.00 0.00 0.00 0.00 0.00 0.00 0.00 0.00 0.00
0.00 0.00 0.00 0.00 0.00 0.00 0.00 0.00 0.00 0.00 0.00 0.00 0.00 0.00 0.00 0.00 0.00 0.00 0.00 0.00 0.00 0.00 0.00 0.00 0.00 0.00 0.00 0.00 0.00 0.00 0.00 0.00 0.00 0.00 0.00 0.00 0.00 0.00 0.00 0.00 0.00 0.00 0.00 0.00 0.00
0.00 0.00 0.00 0.00 0.00 0.00 0.00 0.00 0.00 0.00 0.00 0.00 0.00 0.00 0.00 0.00 0.00 0.00 0.00 0.00 0.00 0.00 0.00 0.00 0.00 0.00 0.00 0.00 0.00 0.00 0.00 0.00 0.00 0.00 0.00 0.00 0.00 0.00 0.00 0.00 0.00 0.00 0.00 0.00 0.00
0.00 0.00 0.00 0.00 0.00 0.00 0.00 0.00 0.00 0.00 0.00 0.00 0.00 0.00 0.00 0.00 0.00 0.00 0.00 0.00 0.00 0.00 0.00 0.00 0.00 0.00 0.00 0.00 0.00 0.00 0.00 0.00 0.00 0.00 0.00 0.00 0.00 0.00 0.00 0.00 0.00 0.00 0.00 0.00 0.00
0.00 0.00 0.00 0.00 0.00 0.00 0.00 0.00 0.00 0.00 0.00 0.00 0.00 0.00 0.00 0.00 0.00 0.00 0.00 0.00 0.00 0.00 0.00 0.00 0.00 0.00 0.00 0.00 0.00 0.00 0.00 0.00 0.00 0.00 0.00 0.00 0.00 0.00 0.00 0.00 0.00 0.00 0.00 0.00 0.00
0.00 0.00 0.00 0.00 0.00 0.00 0.00 0.00 0.00 0.00 0.00 0.00 0.00 0.00 0.00 0.00 0.00 0.00 0.00 0.00 0.00 0.00 0.00 0.00 0.00 0.00 0.00 0.00 0.00 0.00 0.00 0.00 0.00 0.00 0.00 0.00 0.00 0.00 0.00 0.00 0.00 0.00 0.00 0.00 0.00
0.00 0.00 0.00 0.00 0.00 0.00 0.00 0.00 0.00 0.00 0.00 0.00 0.00 0.00 0.00 0.00 0.00 0.00 0.00 0.00 0.00 0.00 0.00 0.00 0.00 0.00 0.00 0.00 0.00 0.00 0.00 0.00 0.00 0.00 0.00 0.00 0.00 0.00 0.00 0.00 0.00 0.00 0.00 0.00 0.00
0.00 0.00 0.00 0.00 0.00 0.00 0.00 0.00 0.00 0.00 0.00 0.00 0.00 0.00 0.00 0.00 0.00 0.00 0.00 0.00 0.00 0.00 0.00 0.00 0.00 0.00 0.00 0.00 0.00 0.00 0.00 0.00 0.00 0.00 0.00 0.00 0.00 0.00 0.00 0.00 0.00 0.00 0.00 0.00 0.00
0.00 0.00 0.00 0.00 0.00 0.00 0.00 0.00 0.00 0.00 0.00 0.00 0.00 0.00 0.00 0.00 0.00 0.00 0.00 0.00 0.00 0.00 0.00 0.00 0.00 0.00 0.00 0.00 0.00 0.00 0.00 0.00 0.00 0.00 0.00 0.00 0.00 0.00 0.00 0.00 0.00 0.00 0.00 0.00 0.00
0.00 0.00 0.00 0.00 0.00 0.00 0.00 0.00 0.00 0.00 0.00 0.00 0.00 0.00 0.00 0.00 0.00 0.00 0.00 0.00 0.00 0.00 0.00 0.00 0.00 0.00 0.00 0.00 0.00 0.00 0.00 0.00 0.00 0.00 0.00 0.00 0.00 0.00 0.00 0.00 0.00 0.00 0.00 0.00 0.00
0.00 0.00 0.00 0.00 0.00 0.00 0.00 0.00 0.00 0.00 0.00 0.00 0.00 0.00 0.00 0.00 0.00 0.00 0.00 0.00 0.00 0.00 0.00 0.00 0.00 0.00 0.00 0.00 0.00 0.00 0.00 0.00 0.00 0.00 0.00 0.00 0.00 0.00 0.00 0.00 0.00 0.00 0.00 0.00 0.00
0.00 0.00 0.00 0.00 0.00 0.00 0.00 0.00 0.00 0.00 0.00 0.00 0.00 0.00 0.00 0.00 0.00 0.00 0.00 0.00 0.00 0.00 0.00 0.00 0.00 0.00 0.00 0.00 0.00 0.00 0.01 0.00 0.00 0.00 0.00 0.00 0.00 0.00 0.00 0.00 0.00 0.00 0.00 0.00 0.00
MSLP
1017.91 1017.55 1016.89 1016.70 1016.28 1015.83 1015.22 1014.78 1014.53 1014.19 1013.86 1013.58 1013.28 1013.05 1012.83 1012.52 1011.97 1011.69 1010.59 1007.78 1007.80 1007.49 1007.75 1008.02 1008.14 1008.37 1008.70 1009.07 1009.26 1009.77 1011.26 1012.42 1012.22 1012.29 1011.35 1011.47 1011.47 1011.35 1011.01 1010.80 1010.94 1011.33 1011.75 1012.44 1013.62
1017.83 1017.17 1016.89 1016.69 1016.09 1015.56 1014.95 1014.59 1014.34 1013.97 1013.72 1013.48 1013.14 1012.98 1012.76 1012.55 1012.03 1010.50 1007.22 1006.96 1007.25 1007.46 1007.91 1008.06 1008.45 1008.49 1009.05 1009.13 1009.35 1009.84 1010.94 1011.12 1010.44 1010.36 1010.49 1011.04 1010.86 1011.08 1011.21 1010.99 1011.27 1011.98 1012.42 1012.70 1013.76
1017.62 1017.13 1016.95 1016.44 1015.81 1015.25 1014.65 1014.25 1014.01 1013.69 1013.41 1013.18 1013.04 1012.88 1012.66 1012.49 1011.64 1007.97 1006.44 1006.46 1007.06 1007.37 1007.45 1007.78 1008.21 1008.47 1008.94 1009.07 1009.32 1009.76 1010.03 1009.80 1009.41 1009.36 1009.83 1010.60 1011.07 1011.05 1011.10 1011.39 1010.87 1011.72 1012.77 1013.09 1013.76
1017.48 1017.18 1016.85 1016.22 1015.64 1015.02 1014.47 1014.05 1013.74 1013.44 1013.27 1013.12 1012.89 1012.72 1012.58 1012.50 1010.29 1006.93 1006.37 1006.07 1006.99 1007.58 1007.60 1007.94 1008.38 1008.83 1009.04 1009.13 1009.06 1009.33 1009.25 1009.14 1008.94 1009.13 1009.80 1010.57 1010.75 1011.13 1011.04 1010.34 1010.40 1011.38 1012.41 1013.34 1014.00
1017.52 1017.32 1016.76 1016.02 1015.45 1014.81 1014.24 1013.79 1013.46 1013.29 1013.11 1012.90 1012.75 1012.76 1012.54 1011.75 1009.00 1006.68 1006.68 1006.73 1007.25 1007.77 1007.83 1008.07 1008.47 1008.81 1008.83 1008.93 1008.99 1009.09 1008.94 1009.05 1008.47 1009.01 1009.39 1009.98 1010.51 1010.93 1010.95 1010.57 1010.62 1011.71 1012.82 1013.57 1014.41
1017.72 1017.31 1016.57 1015.90 1015.28 1014.60 1013.99 1013.50 1013.07 1012.80 1012.67 1012.58 1012.58 1012.80 1012.48 1010.50 1006.91 1006.61 1006.85 1007.16 1007.14 1007.73 1008.02 1008.05 1008.13 1008.22 1008.44 1008.63 1008.81 1008.61 1008.66 1008.74 1008.99 1009.45 1009.76 1010.11 1010.79 1010.85 1010.87 1010.84 1011.28 1012.03 1013.03 1013.82 1014.54
1017.78 1017.17 1016.46 1015.81 1015.09 1014.34 1013.63 1013.06 1012.59 1012.27 1012.21 1012.27 1012.36 1012.52 1011.63 1008.25 1006.71 1006.83 1007.02 1007.01 1007.13 1007.32 1007.94 1007.90 1007.80 1008.03 1008.16 1008.44 1008.38 1008.43 1008.82 1009.10 1009.58 1009.80 1010.08 1010.32 1011.41 1010.76 1010.67 1011.15 1011.75 1012.56 1013.43 1014.49 1015.38
1017.71 1017.05 1016.27 1015.47 1014.62 1013.84 1013.20 1012.64 1012.15 1011.60 1011.51 1011.85 1012.23 1012.04 1009.89 1006.82 1006.66 1006.58 1006.53 1006.86 1007.05 1007.19 1007.34 1007.36 1007.64 1007.94 1008.16 1008.35 1008.59 1008.74 1008.96 1009.23 1009.80 1009.84 1010.18 1010.14 1010.40 1010.67 1011.09 1011.53 1012.28 1013.32 1014.56 1015.68 1016.29
1017.65 1016.95 1016.05 1015.16 1014.28 1013.45 1012.82 1012.32 1011.85 1011.41 1011.52 1011.81 1012.05 1011.36 1008.59 1006.49 1006.50 1005.70 1005.81 1006.39 1006.78 1007.16 1007.16 1007.28 1007.73 1008.42 1008.65 1009.09 1009.57 1009.68 1009.58 1009.47 1009.67 1009.72 1010.00 1010.74 1010.63 1010.58 1011.32 1011.98 1013.28 1014.43 1015.16 1016.08 1017.04
1017.45 1016.60 1015.73 1014.90 1014.00 1013.18 1012.34 1011.79 1011.64 1011.75 1011.82 1011.73 1011.11 1010.88 1007.92 1006.73 1005.94 1005.44 1005.62 1005.94 1006.46 1006.95 1007.41 1007.66 1008.43 1008.95 1009.65 1009.91 1010.34 1010.10 1009.82 1009.60 1009.37 1009.53 1010.11 1010.60 1010.76 1010.79 1011.22 1012.38 1013.35 1014.39 1015.21 1015.96 1016.40
1017.17 1016.25 1015.43 1014.47 1013.64 1012.95 1012.21 1011.70 1012.10 1011.84 1011.32 1010.52 1009.82 1009.05 1007.61 1006.43 1005.74 1005.48 1005.53 1005.89 1006.29 1006.97 1007.76 1008.26 1009.06 1009.41 1009.55 1009.62 1009.65 1009.69 1009.65 1009.64 1009.42 1009.16 1009.81 1010.10 1010.30 1010.61 1011.70 1012.36 1013.14 1013.77 1014.66 1014.99 1014.78
1016.90 1015.98 1015.01 1014.06 1013.25 1012.59 1012.52 1012.33 1012.29 1012.35 1011.26 1009.15 1008.46 1008.07 1006.91 1006.70 1006.69 1005.77 1005.46 1006.00 1006.58 1007.41 1007.89 1008.73 1009.12 1008.67 1008.83 1009.19 1009.38 1009.52 1009.52 1009.37 1009.02 1008.98 1009.76 1010.09 1010.37 1011.09 1011.48 1011.46 1011.63 1012.34 1013.16 1014.14 1015.52
1016.58 1015.55 1014.59 1013.56 1012.86 1012.56 1012.77 1012.07 1011.73 1011.82 1011.50 1008.60 1007.57 1007.01 1006.37 1006.57 1006.58 1005.73 1005.64 1005.92 1006.65 1007.59 1008.15 1008.77 1008.35 1008.19 1008.34 1008.63 1009.00 1009.06 1009.24 1009.08 1009.19 1009.23 1009.67 1010.37 1010.97 1011.16 1011.42 1011.69 1012.37 1012.59 1012.74 1013.88 1014.51
1016.20 1015.25 1014.33 1013.21 1012.95 1013.40 1012.52 1011.74 1011.56 1011.52 1011.03 1008.61 1006.94 1005.99 1006.02 1006.19 1005.87 1005.18 1005.11 1005.57 1006.53 1007.32 1008.24 1008.36 1007.69 1007.71 1007.91 1008.12 1008.38 1008.49 1008.08 1008.42 1008.94 1009.87 1010.20 1010.05 1011.10 1011.39 1011.55 1011.92 1012.28 1012.52 1012.96 1013.68 1014.77
1015.89 1014.96 1014.24 1013.67 1013.58 1013.08 1012.13 1011.45 1011.04 1011.19 1010.53 1008.27 1006.68 1005.44 1005.83 1006.29 1005.84 1004.95 1004.92 1005.28 1006.22 1007.07 1007.90 1007.52 1007.23 1007.26 1007.34 1007.30 1007.56 1007.52 1007.47 1008.18 1008.57 1009.52 1009.94 1010.17 1010.89 1011.08 1011.47 1011.80 1011.20 1011.13 1012.14 1013.27 1014.38
1015.28 1014.56 1014.04 1013.90 1013.73 1012.26 1011.71 1011.27 1011.02 1011.48 1010.32 1008.61 1007.46 1006.90 1006.78 1006.38 1005.92 1005.24 1005.12 1005.32 1005.88 1006.91 1007.35 1007.37 1006.97 1006.76 1006.36 1006.56 1006.78 1006.80 1007.55 1008.51 1009.52 1010.10 1010.68 1009.67 1010.19 1010.89 1010.81 1009.50 1009.12 1010.38 1011.38 1012.48 1013.79
1014.66 1013.84 1013.53 1013.30 1012.71 1011.79 1011.36 1011.53 1012.17 1011.59 1010.62 1009.92 1009.03 1008.44 1008.35 1007.75 1006.85 1006.33 1005.95 1006.19 1006.69 1007.43 1007.61 1007.42 1006.84 1006.32 1006.02 1006.43 1006.67 1007.14 1008.65 1009.93 1010.64 1010.98 1010.67 1009.79 1010.11 1008.84 1008.47 1007.91 1007.63 1008.34 1010.13 1011.61 1013.01
1014.26 1013.44 1013.20 1012.86 1012.41 1012.20 1011.82 1012.30 1012.58 1012.22 1011.37 1010.50 1009.93 1009.32 1009.36 1008.88 1008.21 1007.58 1007.32 1007.46 1007.40 1007.86 1008.30 1008.10 1007.20 1006.25 1005.74 1005.86 1006.43 1007.22 1008.42 1010.26 1011.02 1011.50 1010.95 1010.02 1009.47 1008.02 1007.82 1007.33 1007.83 1008.39 1009.83 1011.54 1012.86
1014.18 1013.49 1013.17 1012.37 1012.10 1012.34 1012.69 1013.65 1013.39 1012.58 1011.80 1011.22 1010.67 1010.58 1010.50 1010.09 1009.92 1009.06 1008.73 1008.72 1008.46 1008.24 1008.56 1008.45 1007.67 1006.51 1005.87 1005.48 1006.10 1007.07 1008.17 1008.69 1010.17 1011.23 1011.12 1009.98 1009.00 1007.97 1007.86 1007.82 1008.04 1008.64 1009.63 1010.93 1012.00
1015.65 1014.80 1013.38 1012.18 1012.02 1012.37 1013.35 1014.00 1013.47 1012.49 1011.82 1011.41 1011.63 1011.54 1011.88 1011.83 1011.22 1010.41 1010.01 1010.33 1009.90 1009.45 1008.98 1008.83 1008.59 1007.12 1006.10 1005.82 1006.10 1006.54 1007.59 1009.08 1010.24 1011.20 1011.29 1010.18 1009.42 1008.28 1008.12 1007.88 1008.23 1008.95 1009.47 1010.55 1011.54
1015.92 1015.07 1012.93 1012.13 1012.15 1013.33 1014.54 1014.48 1013.53 1012.31 1012.03 1011.97 1012.11 1012.47 1012.90 1013.03 1012.72 1011.99 1011.65 1011.19 1010.82 1010.16 1009.56 1009.63 1009.37 1008.37 1007.33 1007.14 1007.11 1007.31 1007.86 1009.09 1010.12 1010.74 1010.80 1010.41 1008.89 1006.63 1006.34 1006.49 1007.16 1007.77 1008.85 1009.69 1010.64
1017.20 1016.04 1013.40 1012.42 1013.76 1015.35 1015.55 1014.96 1013.98 1013.10 1012.64 1012.46 1012.67 1013.18 1013.62 1013.75 1013.53 1013.14 1012.72 1012.14 1011.73 1011.25 1010.89 1010.42 1010.37 1009.94 1008.76 1007.77 1007.48 1007.92 1009.27 1010.29 1011.54 1011.21 1010.69 1009.90 1007.54 1005.30 1005.02 1005.64 1006.26 1006.97 1007.97 1009.11 1010.05
1018.73 1017.49 1014.26 1013.81 1015.55 1016.48 1016.07 1015.42 1014.70 1014.14 1013.81 1013.51 1013.79 1013.95 1014.29 1014.47 1014.39 1013.88 1013.31 1012.57 1012.20 1012.17 1011.94 1011.43 1011.27 1010.90 1009.81 1009.19 1008.51 1008.90 1009.54 1010.66 1011.38 1011.91 1010.56 1009.59 1007.16 1005.31 1005.26 1005.60 1006.11 1006.79 1007.74 1009.03 1009.96
1019.31 1018.92 1017.40 1017.05 1017.67 1017.49 1017.25 1016.72 1015.55 1014.88 1014.81 1014.59 1014.73 1014.81 1015.05 1015.18 1015.06 1014.82 1014.35 1013.48 1013.08 1012.74 1012.43 1012.12 1012.07 1011.85 1011.31 1010.60 1010.27 1010.08 1009.51 1010.04 1011.14 1011.94 1011.09 1009.44 1006.61 1005.68 1005.20 1005.34 1006.16 1006.68 1007.26 1008.23 1009.34
1020.31 1021.01 1020.76 1019.94 1019.30 1018.81 1018.31 1017.61 1016.91 1016.18 1015.81 1015.66 1015.78 1015.99 1016.18 1016.31 1016.13 1015.97 1015.55 1014.99 1014.10 1013.26 1013.05 1013.06 1013.05 1012.29 1011.66 1011.14 1010.61 1010.14 1009.85 1009.70 1009.90 1010.14 1010.44 1008.04 1007.24 1004.99 1004.47 1004.26 1004.80 1006.02 1007.02 1008.03 1008.92
1021.63 1021.89 1021.61 1020.99 1020.35 1019.47 1019.10 1018.84 1017.98 1017.39 1016.99 1016.84 1016.89 1016.75 1016.74 1017.03 1017.43 1017.29 1016.91 1016.61 1015.60 1014.35 1014.15 1014.09 1013.77 1013.05 1012.09 1011.18 1010.48 1009.70 1009.08 1008.86 1008.45 1008.52 1008.10 1007.57 1006.35 1004.13 1004.02 1004.44 1004.76 1005.18 1006.26 1007.10 1007.86
1022.35 1022.19 1021.91 1021.96 1021.10 1020.50 1019.79 1019.34 1019.00 1018.59 1017.84 1017.61 1017.77 1017.59 1017.40 1017.63 1017.75 1017.28 1016.90 1016.59 1015.97 1015.61 1015.17 1015.07 1014.58 1014.06 1012.68 1011.52 1010.63 1009.42 1008.08 1007.52 1007.27 1007.23 1008.02 1007.51 1005.70 1003.41 1004.01 1004.09 1004.13 1004.43 1005.14 1005.60 1006.42
Thickness
5703 5706 5710 5711 5715 5719 5724 5728 5730 5732 5733 5734 5736 5737 5738 5741 5746 5749 5756 5782 5782 5786 5784 5783 5781 5780 5778 5773 5777 5771 5733 5721 5736 5734 5755 5757 5759 5768 5777 5771 5771 5769 5763 5760 5753
5701 5707 5708 5710 5714 5719 5725 5727 5729 5732 5732 5733 5735 5735 5736 5738 5742 5750 5784 5786 5784 5783 5777 5773 5765 5770 5758 5765 5765 5753 5731 5735 5758 5761 5760 5755 5764 5763 5764 5766 5764 5757 5759 5759 5750
5701 5704 5705 5709 5714 5720 5724 5728 5729 5731 5733 5734 5733 5733 5735 5736 5743 5766 5786 5788 5783 5781 5780 5777 5770 5766 5757 5762 5760 5751 5737 5754 5767 5771 5770 5758 5758 5765 5760 5752 5767 5757 5751 5753 5749
5700 5702 5703 5709 5714 5719 5724 5727 5729 5731 5731 5732 5733 5733 5733 5733 5736 5776 5784 5788 5781 5777 5775 5767 5761 5751 5746 5748 5759 5751 5756 5757 5770 5772 5766 5754 5761 5756 5760 5769 5779 5768 5759 5751 5745
5697 5697 5702 5709 5713 5719 5724 5727 5729 5730 5731 5732 5732 5731 5732 5736 5746 5777 5779 5779 5776 5771 5765 5760 5753 5747 5742 5746 5751 5749 5756 5754 5771 5767 5768 5764 5756 5755 5758 5771 5776 5765 5754 5747 5740
5692 5694 5700 5706 5712 5718 5723 5727 5729 5731 5731 5731 5730 5727 5730 5729 5773 5776 5775 5772 5772 5765 5759 5758 5752 5753 5749 5749 5746 5750 5755 5758 5758 5752 5759 5753 5750 5757 5760 5767 5763 5758 5749 5743 5737
5687 5692 5698 5704 5710 5717 5722 5727 5730 5732 5732 5731 5729 5728 5731 5745 5772 5771 5771 5769 5769 5766 5754 5759 5762 5756 5755 5747 5757 5755 5747 5747 5745 5746 5747 5752 5737 5745 5760 5761 5754 5747 5742 5734 5728
5685 5690 5695 5702 5710 5716 5721 5726 5730 5733 5733 5730 5726 5727 5734 5769 5771 5770 5771 5766 5766 5766 5764 5766 5764 5757 5753 5756 5744 5743 5736 5728 5739 5744 5744 5749 5731 5749 5754 5751 5745 5739 5729 5720 5716
5681 5686 5693 5700 5708 5714 5719 5723 5727 5730 5728 5725 5723 5727 5735 5768 5761 5773 5773 5762 5760 5759 5762 5765 5758 5744 5743 5725 5712 5716 5713 5725 5728 5741 5739 5735 5732 5748 5748 5744 5731 5724 5721 5714 5704
5679 5686 5692 5699 5706 5712 5718 5723 5723 5722 5720 5721 5726 5722 5748 5749 5762 5771 5770 5766 5756 5752 5747 5746 5730 5721 5711 5707 5689 5708 5712 5720 5726 5734 5733 5725 5727 5737 5743 5734 5726 5719 5715 5710 5707
5678 5685 5692 5698 5704 5710 5716 5719 5716 5716 5718 5724 5729 5728 5740 5754 5763 5760 5763 5756 5753 5740 5722 5728 5713 5705 5714 5716 5719 5720 5717 5715 5724 5736 5728 5728 5735 5733 5730 5729 5722 5722 5717 5716 5718
5676 5683 5691 5697 5704 5709 5708 5710 5708 5706 5698 5727 5730 5729 5745 5748 5731 5746 5758 5739 5733 5715 5724 5710 5700 5718 5724 5718 5718 5715 5713 5711 5724 5730 5725 5722 5726 5726 5728 5735 5735 5732 5730 5723 5712
5675 5683 5690 5698 5703 5704 5701 5707 5709 5707 5694 5719 5731 5731 5739 5740 5724 5731 5744 5735 5724 5711 5710 5699 5714 5723 5724 5719 5713 5709 5707 5712 5716 5724 5721 5713 5708 5714 5723 5729 5726 5730 5733 5724 5717
5674 5680 5687 5696 5700 5690 5700 5705 5706 5706 5676 5707 5722 5733 5735 5735 5726 5746 5747 5738 5723 5706 5702 5707 5719 5719 5713 5712 5710 5702 5721 5722 5717 5702 5686 5716 5682 5709 5712 5717 5719 5723 5724 5719 5713
5671 5677 5683 5687 5688 5693 5700 5703 5706 5702 5656 5708 5716 5743 5733 5724 5729 5738 5748 5736 5713 5709 5706 5706 5713 5713 5711 5713 5716 5713 5730 5723 5721 5701 5704 5706 5689 5699 5708 5711 5724 5730 5726 5718 5711
5671 5675 5680 5681 5682 5693 5698 5701 5701 5663 5661 5690 5706 5703 5706 5716 5721 5733 5734 5738 5728 5711 5712 5708 5722 5718 5721 5721 5724 5734 5722 5706 5692 5686 5670 5703 5697 5686 5704 5727 5739 5734 5730 5722 5711
5671 5676 5680 5681 5689 5693 5696 5691 5655 5643 5681 5673 5681 5690 5690 5693 5703 5709 5714 5708 5695 5683 5680 5698 5704 5718 5726 5714 5721 5716 5688 5659 5666 5663 5667 5699 5689 5707 5724 5738 5750 5748 5737 5727 5714
5668 5674 5677 5680 5683 5685 5688 5666 5653 5661 5665 5680 5680 5679 5677 5685 5692 5693 5693 5684 5700 5692 5674 5675 5677 5707 5724 5716 5708 5707 5692 5658 5656 5652 5670 5691 5681 5713 5731 5744 5744 5744 5734 5722 5710
5662 5668 5673 5679 5680 5679 5667 5633 5643 5655 5665 5665 5668 5661 5661 5670 5671 5680 5679 5679 5689 5694 5677 5669 5675 5710 5719 5725 5718 5700 5684 5698 5668 5665 5661 5676 5699 5720 5725 5731 5734 5733 5730 5718 5713
5641 5649 5663 5673 5675 5670 5645 5635 5646 5658 5663 5666 5652 5660 5647 5649 5654 5659 5669 5666 5667 5680 5686 5680 5662 5701 5712 5719 5715 5703 5702 5678 5660 5660 5656 5666 5681 5693 5711 5720 5724 5723 5723 5718 5713
5636 5646 5660 5667 5667 5649 5629 5632 5645 5663 5662 5655 5651 5648 5644 5641 5641 5649 5647 5660 5662 5668 5676 5670 5664 5676 5701 5693 5689 5688 5683 5680 5668 5657 5648 5648 5662 5715 5729 5734 5730 5730 5726 5720 5715
5615 5630 5650 5659 5636 5615 5624 5631 5641 5648 5651 5651 5648 5641 5636 5635 5634 5637 5636 5644 5656 5658 5654 5663 5647 5645 5669 5691 5697 5695 5672 5659 5642 5653 5649 5649 5666 5733 5739 5737 5738 5735 5729 5720 5715
5595 5601 5637 5642 5617 5611 5617 5625 5631 5630 5633 5636 5630 5632 5629 5626 5623 5629 5632 5646 5644 5642 5639 5647 5633 5622 5643 5663 5675 5670 5671 5660 5648 5637 5649 5651 5669 5729 5730 5730 5734 5731 5723 5715 5710
5588 5595 5602 5601 5592 5604 5603 5606 5613 5622 5620 5623 5620 5620 5616 5615 5617 5613 5618 5631 5633 5634 5640 5637 5626 5625 5614 5635 5645 5646 5664 5663 5646 5624 5637 5649 5694 5717 5723 5724 5723 5723 5722 5717 5711
5567 5566 5564 5571 5580 5582 5588 5594 5598 5598 5604 5604 5604 5601 5600 5596 5601 5602 5605 5606 5617 5628 5625 5618 5609 5622 5627 5631 5637 5640 5648 5657 5651 5652 5635 5676 5675 5713 5723 5728 5731 5724 5718 5712 5707
5553 5551 5547 5550 5556 5575 5567 5576 5583 5584 5589 5589 5585 5584 5589 5587 5583 5580 5584 5583 5592 5607 5607 5602 5595 5609 5612 5627 5630 5633 5647 5651 5661 5660 5663 5674 5676 5718 5722 5720 5721 5724 5718 5714 5710
5531 5535 5538 5538 5546 5554 5556 5561 5565 5566 5576 5577 5573 5572 5574 5573 5568 5570 5574 5579 5584 5586 5589 5588 5585 5586 5589 5616 5617 5614 5644 5652 5660 5669 5660 5662 5692 5718 5716 5717 5721 5722 5723 5722 5718